AQI (41)

Current Conditions for Foresthill, CA. Sunny, Dry   
Visibility: ---
Space WX Alerts: ALERT:  Geomagnetic K-index of 4 ( Latest Alert ) - Issue Time: 2020 Jan 09 0904 UTC

  Summary / Temperature 

Current Temperature
53.0°F
11.7°C
(24/hr Ago)
51.8°F
(Apparent temp)
52.1°F
Cool
Wind Chill Graphs
53.0°F 

53.5°F/ 11.9°C
 --- Virtual Temp: 55.0°F ---

 Temp Rate:

 24/hr Difference:

 Avg Running Temp:

 Todays High:

 Todays Low:

 Y-days High:

 Y-days Low:

 Todays WChill:

 Y-days WChill:

 Evapotranspiration:

+2.7°F/hr 

+1.2°F

49.6°F

53.0°F 11:21am

44.9°F 8:04am

53.9°F 12:24pm

41.9°F 5:12am

39.6°F 7:01am

34.1°F 5:22am

0.015 in

115' Above Ground

 Temperature:

 6'AGL VRS 115'AGL:

 Avg Running Temp:

 Humidity:

 Todays High:

 Todays Low:

 Y-days High:

 Y-days Low:

56.0°F 

+3°F

52.8°F

66% 

56.0°F 10:55am

49.0°F 12:00am

49.0°F 12:00am

49.0°F 12:00am

Temp & Humidity Graphs

  Wind 

Wind Speed

 Calm

Gusting to

 None

Calm

247°  

Calm

 Avg speed:

 Wind Run:

 Peak Gust:

Calm 

11.0 miles

  12.0 mph 12:06am

  Almanac  

Moon age: 29 days,10 hours,29 minutes,0%

New moon
0%
Illuminated
29 days in cycle

 Moonrise:

 Moonset:

 Sunrise:

 Sunset:

 Solar Noon:

7:21am

5:10pm

7:13am

5:12pm

12:16pm

1min 47s more daylight tomorrow 

  Solar Radiation 

(Current Solar)
  359 W/m2 (70%)
(Todays High)
 563 W/m2@11:11am
Feels like: 60.3°F in the sun

Rain

 Rain Today:

 Rain Rate (/hr):

 Rain last hour:

 Rain Yesterday:

 This Month:

 Season Total:

3 Days Since Last Dry Day

0.04 in

0.000 in

0.00 in

0.01 in

3.55 in

18.65 in

Updated Time

Updated: 1/24/20  11:22am

(Updated  sec ago)

Humidity & Barometer

 Humidity:

 Wetbulb:

 Dew Point:

 Barometer:

77% 

49.4°F 

46.0°F 

30.215 inHg 

 Baro Trend:  Steady 
Northern Calif
Preparedness
Fire 
Level 

    UV Index  

(Current UV)
1.5  Low
(Todays High) @ 11:11am
1.9   Low

National Weather Service Forecast

Today

Today: Partly Sunny
Partly Sunny
Tonight

Tonight: Mostly Cloudy
Mostly Cloudy
Saturday

Saturday: Mostly Cloudy
Mostly Cloudy
Saturday
Night
Saturday Night: Heavy Rain
Heavy Rain
Sunday

Sunday: Rain Showers
Rain Showers
Sunday
Night
Sunday Night: Partly Cloudy then Slight Chance Rain Showers
Partly Cloudy
Hi 54 °F ↓ Lo 43 °F Hi 56 °F ↓ Lo 45 °F Hi 50 °F Lo 37 °F

Foresthill Probe 2 Stats  
Foresthill Probe 2: is located on Thomas Street
at 3000 feet. The main Foresthill Weather site
is located on Melody ln at the 2860 foot elevation

Calm
51.6°F
10.9°C
Temp Rate:
+2.5°F
Calm
Gusting to
2.0 mph
(Humidity)
80%
Wind from W
281°  W
Updated: 24/01/20 - 11:23:35
 Todays High: 51.6°F 11:23
 Todays Low: 44.0°F 08:05
 Rain Today: 0.03 in
 Season Total: 17.98 in

Foresthill Wx: Monthly,Yearly, Highs and Lows 

Foresthill  
This Weather Data is coming from the main Foresthill
Weather site located on Melody ln at the 2860 foot
elevation
Not Foresthill Probe 2
Weather Data
Month
  High
Month
  Low
Year
High
Year
Low
Temp 60.6°F
1/19/20
30.5°F
1/15/20
60.6°F
1/19/20
30.5°F
1/15/20
Humidity 100%
1/8/20
30%
1/7/20
100%
1/8/20
30%
1/7/20
Heat Index 62.1°F
1/19/20
35.0°F
1/15/20
62.1°F
1/19/20
35.0°F
1/15/20
Wind Chill 60.6°F
1/19/20
17.7°F
1/15/20
60.6°F
1/19/20
17.7°F
1/15/20
Wind Gust 40 mph
1/16/20
0 mph
1/1/20
40 mph
1/16/20
0 mph
1/1/20
Barometer 30.59 in
1/5/20
29.73 in
1/16/20
30.59 in
1/5/20
29.73 in
1/16/20
ET 0.07 in
1/7/20
0.00 in
1/1/20
0.07 in
1/7/20
0.00 in
1/1/20
Dew Point 49.0°F
1/22/20
24.2°F
1/7/20
49.0°F
1/22/20
24.2°F
1/7/20
Visible Satellite Pacific Satellite US Radar Satellite Imagery Sacramento,CA.  (click to enlarge)
NWS Weather Forecast - Summary
Updated: Friday, January 24, 2020 - 3:05am PST
NWS Weather Forecast: Today and Tonight (Updated: Fri, 24-Jan-2020 2:33am PST)
Today

Today: Partly Sunny
Partly Sunny

Hi 54 °F ↓
NWS forecast: Partly sunny. High near 54, with temperatures falling to around 49 in the afternoon. South wind around 5 mph.
Tonight

Tonight: Mostly Cloudy
Mostly Cloudy

Lo 43 °F
NWS forecast: Mostly cloudy, with a low around 43. East southeast wind around 5 mph.
YR.NO 10 Day Weather forecast
Last update: 01/24/2020 @ 05:31
Next update: 01/24/2020 @ 11:33
Provided by: 22
      Temperature Precipitation Pressure Wind  
Today
01/24/2020
10:00 12:00 48°F < 0.01 in 30.18 inHg Light air from south-southwest 2 mph
  12:00 18:00 50°F < 0.01 in 30.18 inHg Light breeze from southwest 4 mph
  18:00 00:00 45°F   30.16 inHg Light air from northeast 1 mph
    (Click to enlarge)
meteogram

    Forecast for next 9 days

      Temperature Precip Pressure Wind  
Saturday
01/25/2020
00:00 06:00 37°F   30.15 inHg Light breeze from east 4 mph
  06:00 12:00 41°F   30.13 inHg Light air from east-northeast 3 mph
  12:00 18:00 55°F   30.12 inHg Light air from west 3 mph
  18:00 00:00 46°F 0.23 in 30.12 inHg Light air from southwest 3 mph
      Temperature Precip Pressure Wind  
Sunday
01/26/2020
00:00 06:00 45°F 0.54 in 30.15 inHg Light breeze from south-southeast 5 mph
  06:00 12:00 43°F 0.19 in 30.17 inHg Light breeze from south-southeast 4 mph
  12:00 18:00 46°F 0.06 in 30.23 inHg Light breeze from south-southwest 6 mph
  16:00 22:00 46°F < 0.01 in 30.25 inHg Light air from west 2 mph
  22:00 04:00 39°F   30.33 inHg Light breeze from east-northeast 5 mph
      Temperature Precip Pressure Wind  
Monday
01/27/2020
04:00 10:00 32°F   30.32 inHg Light air from east-northeast 3 mph
  10:00 16:00 48°F   30.35 inHg Light air from east 2 mph
  16:00 22:00 50°F   30.31 inHg Light breeze from southwest 5 mph
  22:00 04:00 37°F   30.36 inHg Light breeze from east 5 mph
      Temperature Precip Pressure Wind  
Tuesday
01/28/2020
04:00 10:00 39°F 0.04 in 30.35 inHg Light air from east 2 mph
  10:00 16:00 45°F   30.35 inHg Light air from east 2 mph
  16:00 22:00 50°F   30.26 inHg Light air from southwest 2 mph
  22:00 04:00 32°F   30.35 inHg Light breeze from east-northeast 4 mph
      Temperature Precip Pressure Wind  
Wednesday
01/29/2020
04:00 10:00 28°F   30.31 inHg Light breeze from east-northeast 5 mph
  10:00 16:00 52°F   30.32 inHg Light air from north 1 mph
  16:00 22:00 52°F   30.30 inHg Light air from west 3 mph
  22:00 04:00 36°F   30.31 inHg Light breeze from east-northeast 4 mph
      Temperature Precip Pressure Wind  
Thursday
01/30/2020
04:00 10:00 36°F   30.29 inHg Light air from east 3 mph
  10:00 16:00 54°F   30.35 inHg Light air from south-southwest 1 mph
  16:00 22:00 55°F   30.30 inHg Light breeze from west-southwest 4 mph
  22:00 04:00 37°F   30.33 inHg Light breeze from east 5 mph
      Temperature Precip Pressure Wind  
Friday
01/31/2020
04:00 10:00 36°F   30.26 inHg Light breeze from east-northeast 6 mph
  10:00 16:00 59°F   30.29 inHg Light air from west-northwest 1 mph
  16:00 22:00 57°F   30.25 inHg Light breeze from west-southwest 4 mph
  22:00 04:00 41°F   30.29 inHg Light air from east 3 mph
      Temperature Precip Pressure Wind  
Saturday
02/01/2020
04:00 10:00 34°F   30.25 inHg Light air from east 2 mph
  10:00 16:00 57°F   30.25 inHg Light air from northeast 1 mph
  16:00 22:00 57°F   30.16 inHg Light air from southwest 2 mph
  22:00 04:00 45°F   30.12 inHg Light breeze from east-southeast 5 mph
      Temperature Precip Pressure Wind  
Sunday
02/02/2020
04:00 10:00 43°F 0.52 in 30.09 inHg Light breeze from southeast 7 mph

NOAA Local Storm Report
2 MILES SOUTH OF NEW HAVEN   ( More )
DATE
01/24/2020
TIME
8:00 AM
COUNTY
FRANKLIN
STATE
MO
GEOGRAPHIC
38.58N 91.22W
SOURCE
COCORAHS
SNOW MEASURED AT 1.5 INCH
How Close Are We To this Month's Temperature Record ?
Updated Friday, Jan 24, 2020- 11:20:00 AM

Current Temperature: 53.0°F

January's High: Temperature Record 71.3°F - Set on Sat, Jan 24, 2015 - 3:19:00 PM
We are currently 18.3°F Less than this Month's record High

January's Low: Temperature Record 24.7°F - Set on Sun, Jan 13, 2013 - 7:29:00 AM
We are currently 28.3°F More than this Month's record Low

Weather History For Friday, January 24, 2020


On this Day - In Weather History ...
Data courtesy of weatherforyou.com
powered by Cumulus v1.9.3 (1059)
Ambient Weather VWS v14.00
Top Website Map Copyright © 2007 - 2020 Foresthillweather.com Never base important decisions on this or any weather information obtained from the Internet